TimeCST,TemperatureF,Dew PointF,Humidity,Sea Level PressureIn,VisibilityMPH,Wind Direction,Wind SpeedMPH,Gust SpeedMPH,PrecipitationIn,Events,Conditions,WindDirDegrees,DateUTC
12:53 AM,39.0,32.0,76,29.84,10.0,ENE,9.2,-,N/A,,Clear,60,2012-11-26 06:53:00
1:53 AM,37.0,30.9,79,29.84,10.0,East,4.6,-,N/A,,Clear,80,2012-11-26 07:53:00
2:53 AM,36.0,30.0,79,29.84,10.0,NE,6.9,-,N/A,,Clear,50,2012-11-26 08:53:00
3:53 AM,37.9,32.0,79,29.85,10.0,NE,9.2,-,N/A,,Clear,50,2012-11-26 09:53:00
4:53 AM,36.0,30.9,82,29.86,10.0,NNE,9.2,-,N/A,,Clear,30,2012-11-26 10:53:00
5:53 AM,36.0,30.9,82,29.91,10.0,North,8.1,-,N/A,,Clear,10,2012-11-26 11:53:00
6:53 AM,37.0,30.9,79,29.95,10.0,North,9.2,-,N/A,,Clear,360,2012-11-26 12:53:00
7:53 AM,37.9,30.0,73,30.00,10.0,NNE,12.7,-,N/A,,Clear,20,2012-11-26 13:53:00
8:53 AM,41.0,30.9,67,30.06,10.0,North,16.1,-,N/A,,Clear,10,2012-11-26 14:53:00
9:53 AM,44.1,32.0,63,30.09,10.0,NNE,19.6,-,N/A,,Clear,20,2012-11-26 15:53:00
10:53 AM,46.9,32.0,56,30.10,10.0,NNE,21.9,33.4,N/A,,Clear,20,2012-11-26 16:53:00
11:53 AM,51.1,32.0,48,30.11,10.0,NNE,25.3,29.9,N/A,,Clear,20,2012-11-26 17:53:00
12:53 PM,53.1,30.9,43,30.11,10.0,North,28.8,33.4,N/A,,Clear,10,2012-11-26 18:53:00
1:53 PM,54.0,30.0,40,30.13,10.0,North,32.2,36.8,N/A,,Clear,10,2012-11-26 19:53:00
2:53 PM,54.0,28.9,38,30.16,10.0,NNE,25.3,36.8,N/A,,Clear,20,2012-11-26 20:53:00
3:53 PM,52.0,28.0,40,30.19,10.0,NNE,31.1,36.8,N/A,,Clear,20,2012-11-26 21:53:00
4:53 PM,48.9,28.0,44,30.24,10.0,NNE,25.3,34.5,N/A,,Clear,30,2012-11-26 22:53:00
5:53 PM,46.0,25.0,44,30.29,10.0,NNE,19.6,29.9,N/A,,Clear,30,2012-11-26 23:53:00
6:53 PM,43.0,21.0,42,30.32,10.0,NNE,13.8,-,N/A,,Clear,30,2012-11-27 00:53:00
7:53 PM,42.1,21.0,43,30.36,10.0,NNE,20.7,-,N/A,,Clear,20,2012-11-27 01:53:00
8:53 PM,39.9,23.0,51,30.39,10.0,NNE,17.3,-,N/A,,Clear,30,2012-11-27 02:53:00
9:53 PM,37.9,23.0,55,30.40,10.0,NNE,17.3,-,N/A,,Clear,30,2012-11-27 03:53:00
10:53 PM,36.0,23.0,59,30.41,10.0,NNE,12.7,-,N/A,,Clear,20,2012-11-27 04:53:00
11:53 PM,35.1,24.1,64,30.42,10.0,NE,13.8,-,N/A,,Clear,40,2012-11-27 05:53:00